map of NVT home
NVT - Airport
Location
City:  Navegantes, Santa Catarina, Brazil
Name:Ministro Victor Konder International Airport
ICAO:SBNF
IATA:NVT

Details
Type:Airport (Aerodrome, Airfield)
Use:Public/Civil, International (customs port of entry)
Latitude:26°52'43"S (-26.878610)
Longitude:48°39'03"W (-48.650832)
Elevation:16 ft (5 m)
Variation:19.64°W (WMM2015 magnetic declination)
-0.14° annual change
Runways:1
Longest:5581 × 148 ft (1701 × 45 m), paved

Time
Time Zone:UTC-3 (DST-2)
Local Time:

Weather
METAR:SBNF 121600Z 05011KT 9999 SCT020 SCT040 26/23 Q1013
TAF:SBNF 120830Z 1212/1312 05007KT 9999 SCT015 BKN045 TX27/1218Z TN22/1308Z
BECMG 1212/1214 SCT040
BECMG 1222/1224 SCT010 BKN020
RMK PER

Related Locations
Nearby:
Farthest:KTD: 12366 mi / 19900 km
Kitadaito [Kitadaito Airport], Kitadaito Island, 47, JP

Find:

   beyond  
but within

Other Information
Maps:
NOTAMs:
Links:
Sources:

  
  • flag of Brazil
  • flag of Santa Catarina
  

Sectional Chart

Flight Planning
at skyvector.com

Satellite Image

Google Maps Satellite view

 

Copyright © 2004-2018 Karl L. Swartz. All rights reserved.
The Great Circle Mapper name and logo are trademarks of the Great Circle Mapper.
All other trademarks mentioned herein belong to their respective owners.
Please see credits for attibutions and further copyright information.

  Follow gcmap on Facebook Follow gcmap on Twitter Follow gcmap on Google+ GCmap on LinkedIn

hCard Microformat

Geo Microformat